Torna al catalogo

STARLINK-34690

AttivoComunicazioniSSO
NORAD 64863·PAYLOAD·🇺🇸 United States

Lanciato Jul 19, 2025 da Vandenberg Space Force Base

Loading…

Prossimi Passaggi (prossime 24 ore)

TLE

AggiornatoSource: CelesTrak SupGP

Epoca: Sep 15, 2026, 02:36 UTC

1 64863C 25152X   26258.10881944 -.00007194  00000+0 -22324-3 0  2586
2 64863  97.2845 108.7290 0002225  94.3998   1.4644 15.33450379    14

Traccia STARLINK-34690 in tempo reale con AllMySat

Download on the App Store